Location: Koussan�
(15.2012°N, 12.5548°W)
Time: 01:27:48
(UTC+00:00)

Cosmos 1850 Rocket - Pass Details

Date: 20 October 2020
Orbit: 753 x 786 km, 74.0° (Epoch: 25 November)

Event Time Altitude Azimuth Distance (km) Brightness Sun altitude
Rises 19:33:24 0° 355° (N) 3,252 7.2 -16.8°
Reaches altitude 10° 19:35:51 10° 360° (N) 2,328 6.4 -17.3°
Maximum altitude 19:40:59 51° 76° (ENE) 973 4.1 -18.6°
Drops below altitude 10° 19:46:09 10° 152° (SSE) 2,336 6.3 -19.8°
Sets 19:48:35 0° 156° (SSE) 3,264 7.1 -20.4°
